User: anonymous   Login
Location: Unspecified
(0.0000°N, 0.0000°E)
Time: 01:04:19
(UTC+00:00)
Language:

STARLINK-5658 - Orbit

View from above orbital plane
View from above orbital plane
View from above satellite
View from above satellite

Ground track
Ground track

The orbit is defined by the following mean orbital elements,

1 55338U          26145.54191360 +.00000000 +00000-0 -20299-4 0 00001
2 55338  43.0020 229.6753 0001346 272.5464  87.5233 15.27579628    03
Epoch (UTC): 25 May 2026 13:00:21
Eccentricity: 0.0001346
inclination: 43.0020°
perigee height: 482 km
apogee height: 484 km
right ascension of ascending node: 229.6753°
argument of perigee: 272.5464°
revolutions per day: 15.27579628
mean anomaly at epoch: 87.5233°

The dashed part of the orbit path shows where the satellite is in the earth's shadow,  

DLR